User: anonymous   Login
Location: Maiden_LMO
(35.5760°N, 81.2120°W)
Time: 10:09:49
(UTC-04:00)
Language:

ADEOS II - Orbit

View from above orbital plane
View from above orbital plane
View from above satellite
View from above satellite

Ground track
Ground track

The orbit data is extracted from the following two-line orbital elements,

1 27597U 02056A   15243.84741350  .00000079  00000-0  49075-4 0  9995
2 27597  98.2925 233.4135 0002283  91.6606 329.7454 14.27120123661944
Epoch (UTC): 31 August 2015 20:20:16
Eccentricity: 0.0002283
inclination: 98.2925°
perigee height: 800 km
apogee height: 803 km
right ascension of ascending node: 233.4135°
argument of perigee: 91.6606°
revolutions per day: 14.27120123
mean anomaly at epoch: 329.7454°
orbit number at epoch: 66194

The dashed part of the orbit path shows where the satellite is in the earth's shadow,  

DLR